Location: Augsburg
(48.3836°N, 10.8929°E)
Time: 17:21:15
(UTC+02:00)

ISS - Pass Details

Date: 21 May 2021
Orbit: 417 x 422 km, 51.6° (Epoch: 12 June)

Event Time Altitude Azimuth Distance (km) Brightness Sun altitude
Rises 00:31:41 0° 290° (WNW) 2,370 0.5 -20.8°
Reaches altitude 10° 00:33:48 10° 293° (WNW) 1,505 -0.5 -20.9°
Maximum altitude 00:37:10 69° 17° (NNE) 453 -3.5 -21.0°
Enters shadow 00:37:16 69° 32° (NNE) 455 -3.6 -21.0°
